Home   Weather   Surat   Past weeks

Flag for India Past Weather in Surat, Gujarat, India — Yesterday and Last 2 Weeks

Now
64 °F

Passing clouds.


Feels Like: 64 °F
Forecast: 65 / 90 °F
Wind: 6 mph from Northeast

Location: Ahmadabad Airport

Current Time: Jan 21, 2017 at 8:05:16 am

Latest Report: Jan 21, 2017 at 7:30 am


Visibility: 2 mi

Pressure: 30.04 "Hg

Humidity: 52%

Dew Point: 46 °F

Location of SuratLocation

Past Weather in Surat — Graph

°F

Surat Temperature Yesterday

Maximum temperature yesterday: 79 °F (at 3:00 pm)
Minimum temperature yesterday: 63 °F (at 1:30 am)
Average temperature yesterday: 70 °F

High & Low Weather Summary for the Past Weeks

 TemperatureHumidityPressure
High86 °F (Jan 15, 3:00 pm)94% (Jan 6, 6:30 am)30.15 "Hg (Jan 6, 6:30 am)
Low52 °F (Jan 11, 7:00 am)21% (Jan 13, 3:00 pm)29.80 "Hg (Jan 7, 2:30 pm)
Average67 °F53%29.98 "Hg
* Reported Jan 6 6:30 am — Jan 21 6:30 am, Surat, Weather by CustomWeather, © 2017

Note: Actual official high and low records may vary slightly from our data, if they occured in-between our weather recording intervals... More about our weather records

Advertising

Surat Weather History for the Previous 24 Hours

Scroll right to see more
 ConditionsComfort  
Time TempWeatherWind HumidityBarometerVisibility
6:30 am
Sat, Jan 21
63 °FClear.5 mph59%30.04 "Hg2 mi
6:00 am64 °FClear.7 mph52%30.04 "Hg2 mi
5:30 am63 °FClear.5 mph59%30.04 "Hg2 mi
5:00 am64 °FClear.6 mph56%30.01 "Hg2 mi
4:30 am64 °FClear.3 mph56%30.01 "Hg2 mi
4:00 am64 °FClear.3 mph56%30.04 "Hg2 mi
3:30 am64 °FClear.6 mph56%30.04 "Hg2 mi
3:00 am66 °FClear.8 mph52%30.04 "Hg2 mi
2:30 am66 °FClear.5 mph52%30.04 "Hg2 mi
2:00 am66 °FClear.6 mph52%30.04 "Hg2 mi
1:30 am68 °FClear.10 mph49%30.04 "Hg2 mi
1:00 am70 °FClear.7 mph46%30.04 "Hg2 mi
12:30 am68 °FClear.8 mph53%30.04 "Hg2 mi
12:00 am68 °FClear.8 mph56%30.04 "Hg2 mi
11:30 pm
Fri, Jan 20
68 °FClear.6 mph56%30.04 "Hg2 mi
11:00 pm68 °FClear.5 mph56%30.07 "Hg2 mi
10:30 pm68 °FClear.6 mph56%30.07 "Hg2 mi
10:00 pm68 °FClear.5 mph56%30.04 "Hg2 mi
9:30 pm70 °FClear.6 mph53%30.04 "Hg2 mi
9:00 pm70 °FClear.5 mph53%30.04 "Hg2 mi
8:30 pm72 °FClear.5 mph50%30.04 "Hg2 mi
8:00 pm72 °FClear.5 mph50%30.01 "Hg2 mi
7:30 pm72 °FClear.5 mph53%30.01 "Hg2 mi
7:00 pm72 °FClear.5 mph53%30.01 "Hg2 mi
6:30 pm73 °FClear.3 mph50%30.01 "Hg2 mi
6:00 pm75 °FClear.5 mph47%29.98 "Hg2 mi
5:30 pm77 °FClear.6 mph42%29.98 "Hg2 mi
5:00 pm79 °FClear.7 mph39%29.98 "Hg2 mi
3:00 pm79 °FPassing clouds.8 mph39%30.01 "Hg2 mi
2:30 pm77 °FPassing clouds.10 mph39%30.01 "Hg2 mi
2:00 pm77 °FPassing clouds.8 mph39%30.04 "Hg2 mi
1:30 pm77 °FPassing clouds.8 mph39%30.07 "Hg2 mi
1:00 pm77 °FPassing clouds.8 mph39%30.07 "Hg2 mi
12:30 pm75 °FPassing clouds.9 mph39%30.09 "Hg2 mi
12:00 pm73 °FPassing clouds.9 mph41%30.12 "Hg2 mi
11:30 am73 °FPassing clouds.13 mph38%30.12 "Hg2 mi
11:00 am72 °FPassing clouds.10 mph38%30.15 "Hg2 mi
10:30 am70 °FPassing clouds.9 mph40%30.15 "Hg2 mi
10:00 am70 °FPassing clouds.10 mph38%30.15 "Hg2 mi
9:30 am68 °FPassing clouds.13 mph40%30.12 "Hg2 mi
9:00 am66 °FPassing clouds.13 mph43%30.12 "Hg2 mi
8:30 am66 °FPassing clouds.9 mph43%30.12 "Hg2 mi
8:00 am66 °FPassing clouds.9 mph43%30.09 "Hg2 mi
Weather by CustomWeather, © 2017

See weather overviewHow to use our weather pages